Location: Quebec
(46.8000°N, 71.2500°W)
Time: 07:52:26
(UTC-04:00)

Vanguard 3 - All Passes

Search period start: 19 July 2018 00:00
Search period end: 29 July 2018 00:00
Orbit: 508 x 3264 km, 33.3° (Epoch: 18 July)

Date Brightness Start Highest point End Pass type
(mag) Time Alt. Az. Time Alt. Az. Time Alt. Az.
19 Jul - 16:01:30 10° S 16:10:22 17° SSE 16:17:27 10° ESE daylight
19 Jul - 18:11:42 10° SW 18:23:27 30° SSE 18:31:06 10° ESE daylight
19 Jul - 20:26:06 10° WSW 20:35:41 33° S 20:41:38 10° SE daylight
19 Jul - 22:41:40 10° WSW 22:46:33 18° SSW 22:50:11 10° SSE visible
20 Jul - 14:51:36 10° SSE 14:55:27 11° SE 14:59:01 10° SE daylight
20 Jul - 16:56:27 10° SSW 17:08:44 26° SSE 17:17:21 10° ESE daylight
20 Jul - 19:09:50 10° SW 19:21:38 35° S 19:28:52 10° ESE daylight
20 Jul - 21:25:14 10° WSW 21:33:18 28° SSW 21:38:31 10° SE visible
21 Jul - 15:42:17 10° S 15:53:45 21° SSE 16:02:38 10° ESE daylight
21 Jul - 17:53:42 10° SW 18:07:06 34° S 18:15:42 10° ESE daylight
21 Jul - 20:08:45 10° WSW 20:19:35 35° S 20:26:11 10° SE daylight
21 Jul - 22:24:57 10° WSW 22:30:30 19° SSW 22:34:33 10° SSE visible
22 Jul - 14:30:15 10° S 14:38:41 15° SE 14:46:02 10° ESE daylight
22 Jul - 16:38:07 10° SSW 16:52:11 31° SSE 17:01:57 10° ESE daylight
22 Jul - 18:52:11 10° WSW 19:05:21 39° S 19:13:23 10° ESE daylight
22 Jul - 21:08:09 10° WSW 21:17:12 29° SSW 21:22:57 10° SE visible
23 Jul - 15:23:31 10° SSW 15:37:00 25° SSE 15:47:22 10° ESE daylight
23 Jul - 17:35:47 10° SW 17:50:37 39° S 18:00:08 10° ESE daylight
23 Jul - 19:51:21 10° WSW 20:03:22 38° SSW 20:10:38 10° SE daylight
23 Jul - 22:08:07 10° WSW 22:14:21 19° SW 22:18:50 10° S visible
24 Jul - 14:10:38 10° S 14:21:47 19° SE 14:31:20 10° ESE daylight
24 Jul - 16:19:57 10° SW 16:35:29 35° SSE 16:46:22 10° ESE daylight
24 Jul - 18:34:32 10° WSW 18:48:58 42° S 18:57:47 10° ESE daylight
24 Jul - 20:50:57 10° WSW 21:00:59 30° SSW 21:07:20 10° SE visible
25 Jul - 13:02:08 10° SSE 13:06:42 11° SE 13:11:07 10° ESE daylight
25 Jul - 15:05:06 10° SSW 15:20:06 29° SSE 15:31:48 10° E daylight
25 Jul - 17:17:57 10° SW 17:34:01 42° S 17:44:29 10° ESE daylight
25 Jul - 19:33:54 10° WSW 19:47:01 39° SSW 19:55:00 10° SE daylight
25 Jul - 21:51:13 10° WSW 21:58:05 19° SW 22:03:01 10° S visible
26 Jul - 13:51:43 10° S 14:04:44 22° SE 14:16:01 10° ESE daylight
26 Jul - 16:01:58 10° SW 16:18:39 39° SSE 16:30:36 10° E daylight
26 Jul - 18:16:53 10° WSW 18:32:26 45° S 18:42:06 10° ESE daylight
26 Jul - 20:33:41 10° W 20:44:39 31° SSW 20:51:37 10° SSE daylight
27 Jul - 12:41:09 10° SSE 12:49:35 14° SE 12:57:38 10° ESE daylight
27 Jul - 14:46:57 10° SSW 15:03:05 33° SSE 15:16:00 10° E daylight
27 Jul - 17:00:12 10° WSW 17:17:18 46° S 17:28:41 10° ESE daylight
27 Jul - 19:16:24 10° WSW 19:30:34 41° SSW 19:39:17 10° SE daylight
27 Jul - 21:34:15 10° W 21:41:43 19° SW 21:47:05 10° S visible
28 Jul - 13:33:18 10° S 13:47:34 26° SE 14:00:18 10° E daylight
28 Jul - 15:44:09 10° SW 16:01:43 43° SSE 16:14:42 10° E daylight
28 Jul - 17:59:17 10° WSW 18:15:48 47° S 18:26:19 10° ESE daylight
28 Jul - 20:16:22 10° W 20:28:11 31° SSW 20:35:48 10° SSE daylight
